DT_LEITURA;HR_LEITURA;MED-PressaoAtm[hPa];VAL-TempExt[oC];VAL-UmidExt[%UR];VAL-TempInt[oC];VAL-UmidInt[%UR];Dir-Vento[grau];Vel-Vento[m/s];Precipitação[mm/h]
18/08/2026;00:00:00;1013,3;-34,6;0;28,9;72;143;1,1;0,0
18/08/2026;00:05:00;1013,3;-34,6;0;28,8;72;143;1,0;0,0
18/08/2026;00:10:00;1013,2;-34,7;0;28,8;72;165;1,1;0,0
18/08/2026;00:15:00;1013,2;-34,7;0;28,8;72;156;1,1;0,0
18/08/2026;00:20:00;1013,2;-34,7;0;28,8;72;155;1,0;0,0
18/08/2026;00:25:00;1013,2;-34,8;0;28,8;72;143;1,5;0,0
18/08/2026;00:30:00;1013,1;-34,8;0;28,8;73;155;1,3;0,0
18/08/2026;00:35:00;1013,1;-34,8;0;28,7;73;138;1,3;0,0
18/08/2026;00:40:00;1013,1;-34,9;0;28,7;73;130;0,9;0,0
18/08/2026;00:45:00;1013,0;-34,9;0;28,7;73;163;0,6;0,0
18/08/2026;00:50:00;1012,9;-35,0;0;28,7;73;160;1,0;0,0
18/08/2026;00:55:00;1012,9;-35,0;0;28,7;73;153;1,0;0,0
18/08/2026;01:00:00;1012,8;-35,0;0;28,7;73;154;1,0;0,0
18/08/2026;01:05:00;1012,8;-35,1;0;28,6;72;146;1,2;0,0
18/08/2026;01:10:00;1012,7;-35,1;0;28,6;72;173;1,1;0,0
18/08/2026;01:15:00;1012,7;-35,1;0;28,6;73;188;0,8;0,0
18/08/2026;01:20:00;1012,7;-35,2;0;28,6;73;174;0,5;0,0
18/08/2026;01:25:00;1012,7;-35,2;0;28,5;73;144;0,8;0,0
18/08/2026;01:30:00;1012,7;-35,3;0;28,5;73;208;0,6;0,0
18/08/2026;01:35:00;1012,6;-35,3;0;28,5;73;335;0,4;0,0
18/08/2026;01:40:00;1012,6;-35,3;0;28,5;73;26;0,5;0,0
18/08/2026;01:45:00;1012,5;-35,3;0;28,4;74;37;0,5;0,0
18/08/2026;01:50:00;1012,5;-35,4;0;28,4;74;26;0,5;0,0
18/08/2026;01:55:00;1012,4;-35,4;0;28,4;74;54;0,4;0,0
18/08/2026;02:00:00;1012,4;-35,5;0;28,4;74;10;0,6;0,0
18/08/2026;02:05:00;1012,3;-35,5;0;28,3;74;14;0,4;0,0
18/08/2026;02:10:00;1012,2;-35,5;0;28,3;74;311;0,5;0,0
18/08/2026;02:15:00;1012,2;-35,6;0;28,3;74;18;0,4;0,0
18/08/2026;02:20:00;1012,2;-35,6;0;28,3;75;345;0,3;0,0
18/08/2026;02:25:00;1012,2;-35,6;0;28,2;75;27;0,4;0,0
18/08/2026;02:30:00;1012,1;-35,6;0;28,2;75;336;0,4;0,0
18/08/2026;02:35:00;1012,1;-35,7;0;28,2;75;29;0,4;0,0
18/08/2026;02:40:00;1012,0;-35,7;0;28,2;75;327;0,3;0,0
18/08/2026;02:45:00;1012,0;-35,7;0;28,2;75;122;0,3;0,0
18/08/2026;02:50:00;1012,0;-35,7;0;28,2;75;72;0,4;0,0
18/08/2026;02:55:00;1011,9;-35,8;0;28,2;75;190;0,4;0,0
18/08/2026;03:00:00;1011,8;-35,8;0;28,2;75;305;0,4;0,0
18/08/2026;03:05:00;1011,8;-35,8;0;28,1;75;3;0,7;0,0
18/08/2026;03:10:00;1011,8;-35,8;0;28,0;76;5;0,6;0,0
18/08/2026;03:15:00;1011,8;-35,9;0;28,0;76;5;0,6;0,0
18/08/2026;03:20:00;1011,8;-35,9;0;27,9;76;6;0,4;0,0
18/08/2026;03:25:00;1011,8;-36,0;0;27,9;76;1;0,5;0,0
18/08/2026;03:30:00;1011,8;-36,0;0;27,8;77;37;0,5;0,0
18/08/2026;03:35:00;1011,9;-36,0;0;27,8;77;6;0,6;0,0
18/08/2026;03:40:00;1011,9;-36,0;0;27,7;77;358;0,6;0,0
18/08/2026;03:45:00;1011,8;-36,1;0;27,7;77;4;0,6;0,0
18/08/2026;03:50:00;1011,8;-36,1;0;27,6;78;350;0,5;0,0
18/08/2026;03:55:00;1011,8;-36,1;0;27,5;78;3;0,6;0,0
18/08/2026;04:00:00;1011,8;-36,1;0;27,5;78;331;0,5;0,0
18/08/2026;04:05:00;1011,9;-36,2;0;27,5;78;349;0,6;0,0
18/08/2026;04:10:00;1011,8;-36,2;0;27,4;78;359;0,4;0,0
18/08/2026;04:15:00;1011,8;-36,2;0;27,4;78;338;0,5;0,0
18/08/2026;04:20:00;1011,8;-36,2;0;27,3;79;340;0,5;0,0
18/08/2026;04:25:00;1011,8;-36,2;0;27,3;79;352;0,6;0,0
18/08/2026;04:30:00;1011,8;-36,2;0;27,2;79;354;0,6;0,0
18/08/2026;04:35:00;1011,8;-36,3;0;27,2;79;347;0,5;0,0
18/08/2026;04:40:00;1011,8;-36,3;0;27,2;79;9;0,6;0,0
18/08/2026;04:45:00;1011,8;-36,3;0;27,1;79;341;0,5;0,0
18/08/2026;04:50:00;1011,8;-36,3;0;27,1;79;358;0,5;0,0
18/08/2026;04:55:00;1011,8;-36,4;0;27,0;80;10;0,5;0,0
18/08/2026;05:00:00;1011,8;-36,4;0;27,0;80;353;0,7;0,0
18/08/2026;05:05:00;1011,8;-36,4;0;26,9;80;6;0,7;0,0
18/08/2026;05:10:00;1011,8;-36,4;0;26,9;80;49;0,4;0,0
18/08/2026;05:15:00;1011,8;-36,4;0;26,8;80;18;0,4;0,0
18/08/2026;05:20:00;1011,9;-36,4;0;26,8;80;12;0,6;0,0
18/08/2026;05:25:00;1011,9;-36,4;0;26,7;80;40;0,4;0,0
18/08/2026;05:30:00;1012,0;-36,4;0;26,7;80;356;0,5;0,0
18/08/2026;05:35:00;1012,0;-36,4;0;26,6;81;21;0,4;0,0
18/08/2026;05:40:00;1011,9;-36,4;0;26,6;81;16;0,4;0,0
18/08/2026;05:45:00;1011,9;-36,4;0;26,6;81;14;0,3;0,0
18/08/2026;05:50:00;1012,0;-36,5;0;26,6;81;68;0,3;0,0
18/08/2026;05:55:00;1012,0;-36,5;0;26,5;81;30;0,5;0,0
18/08/2026;06:00:00;1012,0;-36,5;0;26,5;81;1;0,6;0,0
18/08/2026;06:05:00;1012,0;-36,5;0;26,4;81;7;0,5;0,0
18/08/2026;06:10:00;1012,0;-36,5;0;26,4;82;18;0,5;0,0
18/08/2026;06:15:00;1012,0;-36,5;0;26,4;82;21;0,4;0,0
18/08/2026;06:20:00;1012,0;-36,5;0;26,4;82;15;0,3;0,0
18/08/2026;06:25:00;1012,1;-36,5;0;26,4;82;7;0,4;0,0
18/08/2026;06:30:00;1012,1;-36,5;0;26,4;82;307;0,4;0,0
18/08/2026;06:35:00;1012,2;-36,5;0;26,3;82;247;0,3;0,0
18/08/2026;06:40:00;1012,2;-36,5;0;26,4;82;4;0,4;0,0
18/08/2026;06:45:00;1012,3;-36,5;0;26,4;82;27;0,4;0,0
18/08/2026;06:50:00;1012,4;-36,5;0;26,4;82;255;0,4;0,0
18/08/2026;06:55:00;1012,5;-36,5;0;26,4;82;27;0,3;0,0
18/08/2026;07:00:00;1012,6;-36,5;0;26,4;82;22;0,3;0,0
18/08/2026;07:05:00;1012,6;-36,5;0;26,5;82;48;0,3;0,0
18/08/2026;07:10:00;1012,7;-36,5;0;26,5;82;14;0,4;0,0
18/08/2026;07:15:00;1012,7;-36,5;0;26,5;82;12;0,6;0,0
18/08/2026;07:20:00;1012,8;-36,5;0;26,6;82;5;0,6;0,0
18/08/2026;07:25:00;1012,8;-36,5;0;26,6;82;360;0,5;0,0
18/08/2026;07:30:00;1012,9;-36,5;0;26,6;82;1;0,7;0,0
18/08/2026;07:35:00;1013,0;-36,5;0;26,7;81;359;0,5;0,0
18/08/2026;07:40:00;1013,1;-36,5;0;26,7;81;8;0,5;0,0
18/08/2026;07:45:00;1013,1;-36,5;0;26,8;81;15;0,6;0,0
18/08/2026;07:50:00;1013,1;-36,5;0;26,9;81;4;0,4;0,0
18/08/2026;07:55:00;1013,1;-36,5;0;27,0;81;20;0,7;0,0
18/08/2026;08:00:00;1013,2;-36,4;0;27,0;80;17;0,9;0,0
18/08/2026;08:05:00;1013,2;-36,4;0;27,1;80;17;0,6;0,0
18/08/2026;08:10:00;1013,3;-36,4;0;27,2;80;15;0,8;0,0
18/08/2026;08:15:00;1013,4;-36,4;0;27,2;80;9;0,5;0,0
18/08/2026;08:20:00;1013,5;-36,4;0;27,4;80;3;0,6;0,0
18/08/2026;08:25:00;1013,5;-36,4;0;27,5;79;31;0,4;0,0
18/08/2026;08:30:00;1013,6;-36,4;0;27,7;79;323;0,4;0,0
18/08/2026;08:35:00;1013,7;-36,4;0;27,9;79;273;0,5;0,0
18/08/2026;08:40:00;1013,8;-36,4;0;28,1;79;196;0,6;0,0
18/08/2026;08:45:00;1013,8;-36,3;0;28,3;78;324;0,5;0,0
18/08/2026;08:50:00;1013,8;-36,3;0;28,4;77;246;0,5;0,0
18/08/2026;08:55:00;1013,8;-36,3;0;28,6;77;140;0,7;0,0
18/08/2026;09:00:00;1013,9;-36,2;0;28,8;76;165;0,5;0,0
18/08/2026;09:05:00;1013,9;-36,2;0;29,0;76;114;0,4;0,0
18/08/2026;09:10:00;1013,9;-36,1;0;29,2;75;250;0,6;0,0
18/08/2026;09:15:00;1013,9;-36,0;0;29,3;74;182;0,8;0,0
18/08/2026;09:20:00;1013,9;-35,9;0;29,5;74;167;0,7;0,0
18/08/2026;09:25:00;1013,9;-35,7;0;29,7;73;139;1,3;0,0
18/08/2026;09:30:00;1013,9;-34,9;0;30,1;71;153;0,8;0,0
18/08/2026;09:35:00;1014,0;-33,4;0;30,7;69;170;1,2;0,0
18/08/2026;09:40:00;1014,1;-31,2;0;31,1;67;178;1,0;0,0
18/08/2026;09:45:00;1014,2;-28,6;0;31,3;66;155;1,1;0,0
18/08/2026;09:50:00;1014,2;-25,4;0;31,6;64;134;1,9;0,0
18/08/2026;09:55:00;1014,2;-22,3;0;32,1;60;138;1,9;0,0
18/08/2026;10:00:00;1014,2;-21,1;0;32,5;59;149;1,5;0,0
18/08/2026;10:05:00;1014,2;-20,5;0;32,7;58;130;1,8;0,0
18/08/2026;10:10:00;1014,2;-20,4;0;32,9;57;134;1,9;0,0
18/08/2026;10:15:00;1014,2;-20,4;0;33,2;57;148;1,6;0,0
18/08/2026;10:20:00;1014,2;-20,4;0;33,6;56;135;1,0;0,0
18/08/2026;10:25:00;1014,2;-20,4;0;33,8;56;139;1,6;0,0
18/08/2026;10:30:00;1014,2;-20,5;0;33,9;55;139;2,0;0,0
18/08/2026;10:35:00;1014,2;-20,5;0;33,9;55;167;1,3;0,0
18/08/2026;10:40:00;1014,2;-20,6;0;33,9;55;140;1,8;0,0
18/08/2026;10:45:00;1014,2;-20,2;0;34,0;55;156;1,9;0,0
18/08/2026;10:50:00;1014,2;-20,5;0;34,2;55;144;1,4;0,0
18/08/2026;10:55:00;1014,2;-20,8;0;34,3;53;143;2,0;0,0
18/08/2026;11:00:00;1014,1;-20,8;0;34,3;54;173;1,3;0,0
18/08/2026;11:05:00;1014,1;-20,9;0;34,6;53;141;1,7;0,0
18/08/2026;11:10:00;1014,0;-20,9;0;34,9;51;154;1,6;0,0
18/08/2026;11:15:00;1013,9;-20,9;0;35,0;52;162;1,4;0,0
18/08/2026;11:20:00;1013,8;-21,2;0;35,1;50;168;1,0;0,0
18/08/2026;11:25:00;1013,8;-21,4;0;35,3;50;169;0,9;0,0
18/08/2026;11:30:00;1013,8;-21,0;0;35,3;50;189;0,9;0,0
18/08/2026;11:35:00;1013,7;-21,6;0;35,4;50;144;1,7;0,0
18/08/2026;11:40:00;1013,7;-21,7;0;35,4;49;156;1,5;0,0
18/08/2026;11:45:00;1013,7;-21,5;0;35,2;49;162;1,5;0,0
18/08/2026;11:50:00;1013,7;-21,4;0;34,9;50;160;1,4;0,0
18/08/2026;11:55:00;1013,6;-22,1;0;34,8;51;155;1,2;0,0
18/08/2026;12:00:00;1013,6;-22,0;0;34,8;51;157;1,7;0,0
18/08/2026;12:05:00;1013,6;-21,7;0;34,9;50;148;1,9;0,0
18/08/2026;12:10:00;1013,6;-21,6;0;35,1;49;141;1,9;0,0
18/08/2026;12:15:00;1013,5;-21,4;0;35,3;50;182;1,6;0,0
18/08/2026;12:20:00;1013,5;-22,1;0;35,3;50;165;1,3;0,0
18/08/2026;12:25:00;1013,4;-22,3;0;35,4;50;151;1,1;0,0
18/08/2026;12:30:00;1013,4;-22,4;0;35,7;50;146;1,4;0,0
18/08/2026;12:35:00;1013,4;-22,6;0;36,0;49;144;1,8;0,0
18/08/2026;12:40:00;1013,3;-22,7;0;36,2;48;166;1,3;0,0
18/08/2026;12:45:00;1013,3;-21,8;0;36,4;47;157;1,2;0,0
18/08/2026;12:50:00;1013,2;-22,1;0;36,4;47;154;1,7;0,0
18/08/2026;12:55:00;1013,2;-22,1;0;36,4;47;155;2,0;0,0
18/08/2026;13:00:00;1013,1;-22,2;0;36,1;48;160;1,7;0,0
18/08/2026;13:05:00;1013,0;-22,2;0;35,9;48;144;1,6;0,0
18/08/2026;13:10:00;1013,0;-22,0;0;36,1;49;159;1,6;0,0
18/08/2026;13:15:00;1012,9;-22,0;0;36,1;49;147;1,6;0,0
18/08/2026;13:20:00;1012,9;-22,2;0;36,2;48;150;1,6;0,0
18/08/2026;13:25:00;1012,7;-22,0;0;36,4;48;148;1,6;0,0
18/08/2026;13:30:00;1012,7;-22,1;0;36,4;48;140;1,3;0,0
18/08/2026;13:35:00;1012,6;-22,3;0;36,7;48;156;1,8;0,0
18/08/2026;13:40:00;1012,5;-22,6;0;36,8;47;168;1,3;0,0
18/08/2026;13:45:00;1012,5;-22,6;0;37,1;47;140;1,3;0,0
18/08/2026;13:50:00;1012,4;-22,5;0;37,4;46;154;1,7;0,0
18/08/2026;13:55:00;1012,4;-22,5;0;37,4;46;141;1,5;0,0
18/08/2026;14:00:00;1012,3;-22,3;0;37,5;45;142;1,4;0,0
18/08/2026;14:05:00;1012,2;-22,3;0;37,6;45;150;1,7;0,0
18/08/2026;14:10:00;1012,2;-22,3;0;37,6;46;169;1,2;0,0
18/08/2026;14:15:00;1012,1;-21,7;0;37,9;45;199;0,8;0,0
18/08/2026;14:20:00;1012,1;-22,2;0;38,2;44;147;1,7;0,0
18/08/2026;14:25:00;1012,1;-22,3;0;38,4;43;128;2,0;0,0
18/08/2026;14:30:00;1012,0;-22,4;0;38,4;43;156;1,5;0,0
18/08/2026;14:35:00;1011,9;-22,1;0;38,5;43;177;1,2;0,0
18/08/2026;14:40:00;1011,8;-22,0;0;38,6;42;153;1,4;0,0
18/08/2026;14:45:00;1011,7;-21,1;0;38,7;42;147;1,1;0,0
18/08/2026;14:50:00;1011,7;-21,3;0;38,9;42;141;1,6;0,0
18/08/2026;14:55:00;1011,7;-21,3;0;39,0;41;136;1,5;0,0
18/08/2026;15:00:00;1011,5;-21,6;0;39,1;40;151;1,5;0,0
18/08/2026;15:05:00;1011,5;-21,9;0;39,1;41;155;1,4;0,0
18/08/2026;15:10:00;1011,5;-21,7;0;39,1;40;145;1,3;0,0
18/08/2026;15:15:00;1011,4;-21,4;0;39,1;40;144;1,5;0,0
18/08/2026;15:20:00;1011,4;-21,4;0;39,2;40;145;1,6;0,0
18/08/2026;15:25:00;1011,3;-21,6;0;39,2;40;152;1,6;0,0
18/08/2026;15:30:00;1011,2;-21,5;0;39,1;39;161;1,2;0,0
18/08/2026;15:35:00;1011,1;-21,6;0;39,1;40;177;1,1;0,0
18/08/2026;15:40:00;1011,1;-21,6;0;39,2;40;175;1,1;0,0
18/08/2026;15:45:00;1011,1;-21,1;0;39,2;40;140;1,3;0,0
18/08/2026;15:50:00;1011,1;-21,6;0;39,2;40;144;1,4;0,0
18/08/2026;15:55:00;1011,0;-21,6;0;39,2;39;141;1,3;0,0
18/08/2026;16:00:00;1011,1;-21,6;0;39,1;40;158;1,5;0,0
18/08/2026;16:05:00;1011,1;-21,7;0;38,9;40;157;1,4;0,0
18/08/2026;16:10:00;1011,1;-21,7;0;38,6;41;147;1,2;0,0
18/08/2026;16:15:00;1011,1;-21,8;0;38,5;41;159;1,1;0,0
18/08/2026;16:20:00;1011,1;-21,8;0;38,2;41;164;1,2;0,0
18/08/2026;16:25:00;1011,0;-21,9;0;37,7;43;144;1,3;0,0
18/08/2026;16:30:00;1011,0;-21,4;0;37,1;44;137;1,4;0,0
18/08/2026;16:35:00;1011,1;-22,0;0;36,5;45;130;1,4;0,0
18/08/2026;16:40:00;1011,1;-21,9;0;36,1;46;150;1,5;0,0
18/08/2026;16:45:00;1011,0;-21,9;0;35,7;47;144;1,6;0,0
18/08/2026;16:50:00;1011,0;-22,0;0;35,3;48;134;1,6;0,0
18/08/2026;16:55:00;1011,1;-22,0;0;35,0;49;129;1,6;0,0
18/08/2026;17:00:00;1011,1;-22,2;0;34,8;50;143;1,4;0,0
18/08/2026;17:05:00;1011,1;-22,3;0;34,6;50;143;1,5;0,0
18/08/2026;17:10:00;1011,2;-22,3;0;34,3;51;146;1,5;0,0
18/08/2026;17:15:00;1011,1;-22,3;0;34,2;52;151;1,2;0,0
18/08/2026;17:20:00;1011,1;-22,3;0;34,0;53;156;1,4;0,0
18/08/2026;17:25:00;1011,2;-22,4;0;33,8;53;148;1,4;0,0
18/08/2026;17:30:00;1011,2;-22,4;0;33,6;53;138;1,6;0,0
18/08/2026;17:35:00;1011,2;-22,4;0;33,5;54;159;1,2;0,0
18/08/2026;17:40:00;1011,2;-22,4;0;33,3;55;137;1,2;0,0
18/08/2026;17:45:00;1011,3;-22,5;0;33,2;55;128;1,5;0,0
18/08/2026;17:50:00;1011,3;-22,4;0;33,0;55;150;1,2;0,0
18/08/2026;17:55:00;1011,3;-22,5;0;32,9;56;172;1,1;0,0
18/08/2026;18:00:00;1011,3;-22,1;0;32,7;57;154;1,3;0,0
18/08/2026;18:05:00;1011,3;-22,3;0;32,6;57;158;1,1;0,0
18/08/2026;18:10:00;1011,3;-22,6;0;32,5;58;164;1,0;0,0
18/08/2026;18:15:00;1011,4;-22,6;0;32,4;58;164;1,2;0,0
18/08/2026;18:20:00;1011,4;-22,6;0;32,3;59;159;1,0;0,0
18/08/2026;18:25:00;1011,4;-22,7;0;32,2;59;153;1,2;0,0
18/08/2026;18:30:00;1011,4;-22,7;0;32,1;59;172;1,2;0,0
18/08/2026;18:35:00;1011,5;-22,9;0;32,0;60;148;1,3;0,0
18/08/2026;18:40:00;1011,5;-23,0;0;31,8;60;151;1,0;0,0
18/08/2026;18:45:00;1011,6;-23,2;0;31,7;60;165;1,0;0,0
18/08/2026;18:50:00;1011,6;-23,4;0;31,6;60;164;1,1;0,0
18/08/2026;18:55:00;1011,7;-23,5;0;31,6;61;174;0,9;0,0
18/08/2026;19:00:00;1011,8;-23,6;0;31,5;61;164;1,0;0,0
18/08/2026;19:05:00;1011,9;-23,8;0;31,4;61;152;1,3;0,0
18/08/2026;19:10:00;1012,0;-24,0;0;31,3;61;154;1,2;0,0
18/08/2026;19:15:00;1012,1;-24,0;0;31,3;62;144;1,3;0,0
18/08/2026;19:20:00;1012,2;-24,2;0;31,2;62;137;1,0;0,0
18/08/2026;19:25:00;1012,2;-24,3;0;31,2;62;136;1,3;0,0
18/08/2026;19:30:00;1012,3;-24,4;0;31,1;63;137;1,4;0,0
18/08/2026;19:35:00;1012,4;-24,4;0;31,1;63;135;1,3;0,0
18/08/2026;19:40:00;1012,4;-24,5;0;31,1;63;149;1,1;0,0
18/08/2026;19:45:00;1012,5;-24,6;0;31,1;63;121;1,3;0,0
18/08/2026;19:50:00;1012,5;-24,6;0;31,1;64;138;1,0;0,0
18/08/2026;19:55:00;1012,6;-24,8;0;31,0;64;145;1,1;0,0
18/08/2026;20:00:00;1012,6;-25,0;0;31,0;64;140;1,2;0,0
18/08/2026;20:05:00;1012,7;-25,2;0;30,9;64;141;1,5;0,0
18/08/2026;20:10:00;1012,8;-25,6;0;30,8;64;131;1,4;0,0
18/08/2026;20:15:00;1012,9;-25,6;0;30,7;64;134;1,1;0,0
18/08/2026;20:20:00;1012,9;-26,1;0;30,6;64;131;1,2;0,0
18/08/2026;20:25:00;1013,0;-26,3;0;30,6;64;142;1,0;0,0
18/08/2026;20:30:00;1013,0;-26,6;0;30,5;65;153;1,2;0,0
18/08/2026;20:35:00;1013,1;-26,9;0;30,4;65;154;1,2;0,0
18/08/2026;20:40:00;1013,1;-27,2;0;30,4;65;160;1,1;0,0
18/08/2026;20:45:00;1013,2;-27,6;0;30,3;65;150;1,3;0,0
18/08/2026;20:50:00;1013,2;-28,0;0;30,2;65;166;1,1;0,0
18/08/2026;20:55:00;1013,2;-28,4;0;30,2;66;155;1,4;0,0
18/08/2026;21:00:00;1013,3;-28,6;0;30,1;66;162;1,0;0,0
18/08/2026;21:05:00;1013,4;-29,1;0;30,1;66;196;0,6;0,0
18/08/2026;21:10:00;1013,5;-29,3;0;30,0;66;349;0,4;0,0
18/08/2026;21:15:00;1013,5;-29,6;0;30,0;66;114;0,4;0,0
18/08/2026;21:20:00;1013,5;-29,8;0;30,0;67;260;0,5;0,0
18/08/2026;21:25:00;1013,6;-30,0;0;29,9;67;322;0,5;0,0
18/08/2026;21:30:00;1013,6;-30,3;0;29,9;67;352;0,6;0,0
18/08/2026;21:35:00;1013,6;-30,5;0;29,8;67;352;0,6;0,0
18/08/2026;21:40:00;1013,7;-30,7;0;29,8;67;35;0,4;0,0
18/08/2026;21:45:00;1013,8;-30,9;0;29,8;67;143;0,4;0,0
18/08/2026;21:50:00;1013,9;-31,2;0;29,7;68;218;0,6;0,0
18/08/2026;21:55:00;1013,9;-31,4;0;29,7;68;351;0,5;0,0
18/08/2026;22:00:00;1014,0;-31,6;0;29,6;68;64;0,7;0,0
18/08/2026;22:05:00;1014,0;-31,9;0;29,5;69;245;0,5;0,0
18/08/2026;22:10:00;1014,1;-32,1;0;29,5;69;312;0,5;0,0
18/08/2026;22:15:00;1014,2;-32,4;0;29,4;69;298;0,4;0,0
18/08/2026;22:20:00;1014,3;-32,6;0;29,3;69;289;0,4;0,0
18/08/2026;22:25:00;1014,3;-32,7;0;29,3;69;218;0,4;0,0
18/08/2026;22:30:00;1014,3;-32,9;0;29,2;69;266;0,4;0,0
18/08/2026;22:35:00;1014,3;-33,0;0;29,2;69;263;0,5;0,0
18/08/2026;22:40:00;1014,3;-33,2;0;29,2;70;267;0,4;0,0
18/08/2026;22:45:00;1014,3;-33,3;0;29,1;70;7;0,5;0,0
18/08/2026;22:50:00;1014,3;-33,5;0;29,0;70;38;0,3;0,0
18/08/2026;22:55:00;1014,3;-33,6;0;29,0;70;44;0,5;0,0
18/08/2026;23:00:00;1014,3;-33,7;0;29,0;70;352;0,5;0,0
18/08/2026;23:05:00;1014,2;-33,8;0;28,9;70;328;0,3;0,0
18/08/2026;23:10:00;1014,3;-33,9;0;28,9;70;3;0,5;0,0
18/08/2026;23:15:00;1014,3;-34,0;0;28,8;71;322;0,3;0,0
18/08/2026;23:20:00;1014,3;-34,1;0;28,8;71;39;0,3;0,0
18/08/2026;23:25:00;1014,4;-34,1;0;28,8;71;97;0,3;0,0
18/08/2026;23:30:00;1014,3;-34,2;0;28,8;71;194;0,3;0,0
18/08/2026;23:35:00;1014,3;-34,3;0;28,8;71;160;0,2;0,0
18/08/2026;23:40:00;1014,3;-34,4;0;28,8;71;330;0,4;0,0
18/08/2026;23:45:00;1014,2;-34,4;0;28,7;71;9;0,4;0,0
18/08/2026;23:50:00;1014,2;-34,5;0;28,7;71;24;0,5;0,0
18/08/2026;23:55:00;1014,1;-34,6;0;28,7;72;282;0,3;0,0
